カタログに戻る

IRIDIUM 33 DEB

運用中PO
NORAD 35915·DEBRIS·🇺🇸 United States

打ち上げ Sep 14, 1997 から Baikonur Cosmodrome

Loading…

次のパス (今後24時間)

TLE

最新Source: Space-Track

元期: Sep 14, 2026, 03:43 UTC

1 35915U 97051TY  26257.15488368  .00009246  00000-0  10149-2 0  9998
2 35915  86.3434 216.2727 0008312 332.6065  27.4721 14.87558953121720

AllMySatでIRIDIUM 33 DEBをリアルタイム追跡

Download on the App Store